This is the latest recevied weather packets stored in our database for station/object W0SS-13. If no packets are shown the sender has not sent any weather packets the latest 10 day(s).
| Time | Temp. | Humidity | Pressure | Rain* | Wind** | Luminosity | Snow |
|---|---|---|---|---|---|---|---|
| 1777936023 | 26.67° C | 47% | 1002.7 hPa | 0 mm | - | 110 W/m² | - |
| 1777935722 | 27.22° C | 44% | 1002.5 hPa | 0 mm | - | 175 W/m² | - |
| 1777935421 | 27.22° C | 44% | 1002.6 hPa | 0 mm | - | 279 W/m² | - |
| 1777935116 | 27.22° C | 44% | 1002.7 hPa | 0 mm | - | 228 W/m² | - |
| 1777934814 | 27.22° C | 44% | 1002.6 hPa | 0 mm | - | 256 W/m² | - |
| 1777934510 | 27.22° C | 46% | 1002.6 hPa | 0 mm | - | 277 W/m² | - |
| 1777934208 | 27.22° C | 46% | 1002.7 hPa | 0 mm | - | 274 W/m² | - |
| 1777933903 | 27.22° C | 44% | 1002.7 hPa | 0 mm | - | 281 W/m² | - |
| 1777933600 | 27.22° C | 42% | 1002.6 hPa | 0 mm | - | 338 W/m² | - |
| 1777933297 | 27.78° C | 43% | 1002.6 hPa | 0 mm | - | 306 W/m² | - |
| 1777932994 | 27.78° C | 44% | 1002.6 hPa | 0 mm | - | 414 W/m² | - |
| 1777932691 | 27.78° C | 45% | 1002.7 hPa | 0 mm | - | 448 W/m² | - |
| 1777932387 | 27.78° C | 43% | 1002.7 hPa | 0 mm | - | 442 W/m² | - |
| 1777932086 | 27.22° C | 45% | 1002.7 hPa | 0 mm | - | 447 W/m² | - |
| 1777931781 | 26.67° C | 46% | 1002.9 hPa | 0 mm | - | 384 W/m² | - |
| 1777931479 | 26.67° C | 44% | 1002.8 hPa | 0 mm | - | 343 W/m² | - |
| 1777931175 | 26.67° C | 44% | 1003 hPa | 0 mm | - | 358 W/m² | - |
| 1777930871 | 26.67° C | 44% | 1003.2 hPa | 0 mm | - | 294 W/m² | - |
| 1777930568 | 26.67° C | 45% | 1003.1 hPa | 0 mm | - | 348 W/m² | - |
| 1777930265 | 26.67° C | 49% | 1003.2 hPa | 0 mm | - | 331 W/m² | - |
| 1777929961 | 26.67° C | 44% | 1003.3 hPa | 0 mm | - | 322 W/m² | - |
| 1777929658 | 26.11° C | 46% | 1003.1 hPa | 0 mm | - | 316 W/m² | - |
| 1777929355 | 26.67° C | 48% | 1003.2 hPa | 0 mm | - | 297 W/m² | - |
| 1777929052 | 26.67° C | 50% | 1003.1 hPa | 0 mm | - | 304 W/m² | - |
| 1777928749 | 26.67° C | 47% | 1003.2 hPa | 0 mm | - | 520 W/m² | - |
* Rain latest hour (hover to see other rain measurements)
** Current wind speed in m/s (hover to see current wind gust speed)